Year,Month,Day,Hour,Minute,Value (Times are PST for temperature in C)
2015,03,27,00,00,11.30
2015,03,27,00,01,11.30
2015,03,27,00,02,11.30
2015,03,27,00,03,11.30
2015,03,27,00,04,11.30
2015,03,27,00,05,11.30
2015,03,27,00,06,11.30
2015,03,27,00,07,11.20
2015,03,27,00,08,11.20
2015,03,27,00,09,11.20
2015,03,27,00,10,11.10
2015,03,27,00,11,11.10
2015,03,27,00,12,11.10
2015,03,27,00,13,11.10
2015,03,27,00,14,11.00
2015,03,27,00,15,11.00
2015,03,27,00,16,10.90
2015,03,27,00,17,10.90
2015,03,27,00,18,10.90
2015,03,27,00,19,10.80
2015,03,27,00,20,10.80
2015,03,27,00,21,10.80
2015,03,27,00,22,10.70
2015,03,27,00,23,10.70
2015,03,27,00,24,10.70
2015,03,27,00,25,10.70
2015,03,27,00,26,10.70
2015,03,27,00,27,10.70
2015,03,27,00,28,10.70
2015,03,27,00,29,10.60
2015,03,27,00,30,10.60
2015,03,27,00,31,10.60
2015,03,27,00,32,10.60
2015,03,27,00,33,10.60
2015,03,27,00,34,10.50
2015,03,27,00,35,10.50
2015,03,27,00,36,10.40
2015,03,27,00,37,10.40
2015,03,27,00,38,10.40
2015,03,27,00,39,10.30
2015,03,27,00,40,10.30
2015,03,27,00,41,10.30
2015,03,27,00,42,10.30
2015,03,27,00,43,10.30
2015,03,27,00,44,10.30
2015,03,27,00,45,10.30
2015,03,27,00,46,10.20
2015,03,27,00,47,10.20
2015,03,27,00,48,10.20
2015,03,27,00,49,10.20
2015,03,27,00,50,10.20
2015,03,27,00,51,10.20
2015,03,27,00,52,10.20
2015,03,27,00,53,10.10
2015,03,27,00,54,10.10
2015,03,27,00,55,10.10
2015,03,27,00,56,10.00
2015,03,27,00,57,10.00
2015,03,27,00,58,9.90
2015,03,27,00,59,9.90
2015,03,27,01,00,9.80
2015,03,27,01,01,9.80
2015,03,27,01,02,9.80
2015,03,27,01,03,9.80
2015,03,27,01,04,9.80
2015,03,27,01,05,9.80
2015,03,27,01,06,9.80
2015,03,27,01,07,9.90
2015,03,27,01,08,9.90
2015,03,27,01,09,9.90
2015,03,27,01,10,9.90
2015,03,27,01,11,9.90
2015,03,27,01,12,9.90
2015,03,27,01,13,9.90
2015,03,27,01,14,9.90
2015,03,27,01,15,9.90
2015,03,27,01,16,9.90
2015,03,27,01,17,9.90
2015,03,27,01,18,9.90
2015,03,27,01,19,9.90
2015,03,27,01,20,9.90
2015,03,27,01,21,9.90
2015,03,27,01,22,9.90
2015,03,27,01,23,9.90
2015,03,27,01,24,9.80
2015,03,27,01,25,9.80
2015,03,27,01,26,9.80
2015,03,27,01,27,9.70
2015,03,27,01,28,9.70
2015,03,27,01,29,9.70
2015,03,27,01,30,9.70
2015,03,27,01,31,9.60
2015,03,27,01,32,9.60
2015,03,27,01,33,9.60
2015,03,27,01,34,9.60
2015,03,27,01,35,9.60
2015,03,27,01,36,9.60
2015,03,27,01,37,9.60
2015,03,27,01,38,9.60
2015,03,27,01,39,9.60
2015,03,27,01,40,9.60
2015,03,27,01,41,9.60
2015,03,27,01,42,9.60
2015,03,27,01,43,9.60
2015,03,27,01,44,9.60
2015,03,27,01,45,9.50
2015,03,27,01,46,9.50
2015,03,27,01,47,9.50
2015,03,27,01,48,9.40
2015,03,27,01,49,9.40
2015,03,27,01,50,9.40
2015,03,27,01,51,9.30
2015,03,27,01,52,9.30
2015,03,27,01,53,9.30
2015,03,27,01,54,9.30
2015,03,27,01,55,9.30
2015,03,27,01,56,9.20
2015,03,27,01,57,9.20
2015,03,27,01,58,9.20
2015,03,27,01,59,9.20
2015,03,27,02,00,9.20
2015,03,27,02,01,9.20
2015,03,27,02,02,9.20
2015,03,27,02,03,9.20
2015,03,27,02,04,9.20
2015,03,27,02,05,9.20
2015,03,27,02,06,9.20
2015,03,27,02,07,9.10
2015,03,27,02,08,9.10
2015,03,27,02,09,9.10
2015,03,27,02,10,9.10
2015,03,27,02,11,9.10
2015,03,27,02,12,9.10
2015,03,27,02,13,9.10
2015,03,27,02,14,9.10
2015,03,27,02,15,9.10
2015,03,27,02,16,9.10
2015,03,27,02,17,9.00
2015,03,27,02,18,9.00
2015,03,27,02,19,9.00
2015,03,27,02,20,8.90
2015,03,27,02,21,8.90
2015,03,27,02,22,8.90
2015,03,27,02,23,8.90
2015,03,27,02,24,8.90
2015,03,27,02,25,8.90
2015,03,27,02,26,8.80
2015,03,27,02,27,8.80
2015,03,27,02,28,8.80
2015,03,27,02,29,8.80
2015,03,27,02,30,8.80
2015,03,27,02,31,8.80
2015,03,27,02,32,8.80
2015,03,27,02,33,8.80
2015,03,27,02,34,8.80
2015,03,27,02,35,8.80
2015,03,27,02,36,8.80
2015,03,27,02,37,8.80
2015,03,27,02,38,8.80
2015,03,27,02,39,8.70
2015,03,27,02,40,8.70
2015,03,27,02,41,8.70
2015,03,27,02,42,8.70
2015,03,27,02,43,8.70
2015,03,27,02,44,8.70
2015,03,27,02,45,8.60
2015,03,27,02,46,8.60
2015,03,27,02,47,8.60
2015,03,27,02,48,8.60
2015,03,27,02,49,8.60
2015,03,27,02,50,8.60
2015,03,27,02,51,8.50
2015,03,27,02,52,8.50
2015,03,27,02,53,8.50
2015,03,27,02,54,8.50
2015,03,27,02,55,8.40
2015,03,27,02,56,8.40
2015,03,27,02,57,8.40
2015,03,27,02,58,8.40
2015,03,27,02,59,8.30
2015,03,27,03,00,8.30
2015,03,27,03,01,8.30
2015,03,27,03,02,8.30
2015,03,27,03,03,8.30
2015,03,27,03,04,8.30
2015,03,27,03,05,8.30
2015,03,27,03,06,8.20
2015,03,27,03,07,8.20
2015,03,27,03,08,8.20
2015,03,27,03,09,8.20
2015,03,27,03,10,8.20
2015,03,27,03,11,8.20
2015,03,27,03,12,8.20
2015,03,27,03,13,8.20
2015,03,27,03,14,8.20
2015,03,27,03,15,8.20
2015,03,27,03,16,8.20
2015,03,27,03,17,8.20
2015,03,27,03,18,8.20
2015,03,27,03,19,8.20
2015,03,27,03,20,8.20
2015,03,27,03,21,8.20
2015,03,27,03,22,8.20
2015,03,27,03,23,8.20
2015,03,27,03,24,8.20
2015,03,27,03,25,8.20
2015,03,27,03,26,8.20
2015,03,27,03,27,8.20
2015,03,27,03,28,8.20
2015,03,27,03,29,8.20
2015,03,27,03,30,8.20
2015,03,27,03,31,8.20
2015,03,27,03,32,8.20
2015,03,27,03,33,8.20
2015,03,27,03,34,8.20
2015,03,27,03,35,8.20
2015,03,27,03,36,8.20
2015,03,27,03,37,8.20
2015,03,27,03,38,8.20
2015,03,27,03,39,8.20
2015,03,27,03,40,8.20
2015,03,27,03,41,8.20
2015,03,27,03,42,8.10
2015,03,27,03,43,8.10
2015,03,27,03,44,8.10
2015,03,27,03,45,8.10
2015,03,27,03,46,8.10
2015,03,27,03,47,8.10
2015,03,27,03,48,8.10
2015,03,27,03,49,8.10
2015,03,27,03,50,8.10
2015,03,27,03,51,8.10
2015,03,27,03,52,8.10
2015,03,27,03,53,8.10
2015,03,27,03,54,8.10
2015,03,27,03,55,8.10
2015,03,27,03,56,8.10
2015,03,27,03,57,8.10
2015,03,27,03,58,8.00
2015,03,27,03,59,8.00
2015,03,27,04,00,8.00
2015,03,27,04,01,8.00
2015,03,27,04,02,8.00
2015,03,27,04,03,8.00
2015,03,27,04,04,8.00
2015,03,27,04,05,8.00
2015,03,27,04,06,8.00
2015,03,27,04,07,8.00
2015,03,27,04,08,8.00
2015,03,27,04,09,8.00
2015,03,27,04,10,8.00
2015,03,27,04,11,8.00
2015,03,27,04,12,8.00
2015,03,27,04,13,8.00
2015,03,27,04,14,8.00
2015,03,27,04,15,7.90
2015,03,27,04,16,7.90
2015,03,27,04,17,7.90
2015,03,27,04,18,7.90
2015,03,27,04,19,7.90
2015,03,27,04,20,7.90
2015,03,27,04,21,7.90
2015,03,27,04,22,7.90
2015,03,27,04,23,7.90
2015,03,27,04,24,7.80
2015,03,27,04,25,7.80
2015,03,27,04,26,7.90
2015,03,27,04,27,7.90
2015,03,27,04,28,7.90
2015,03,27,04,29,7.90
2015,03,27,04,30,7.90
2015,03,27,04,31,7.90
2015,03,27,04,32,7.90
2015,03,27,04,33,7.90
2015,03,27,04,34,7.80
2015,03,27,04,35,7.80
2015,03,27,04,36,7.80
2015,03,27,04,37,7.80
2015,03,27,04,38,7.80
2015,03,27,04,39,7.80
2015,03,27,04,40,7.80
2015,03,27,04,41,7.80
2015,03,27,04,42,7.80
2015,03,27,04,43,7.80
2015,03,27,04,44,7.80
2015,03,27,04,45,7.80
2015,03,27,04,46,7.80
2015,03,27,04,47,7.80
2015,03,27,04,48,7.80
2015,03,27,04,49,7.80
2015,03,27,04,50,7.90
2015,03,27,04,51,7.90
2015,03,27,04,52,7.80
2015,03,27,04,53,7.80
2015,03,27,04,54,7.80
2015,03,27,04,55,7.80
2015,03,27,04,56,7.80
2015,03,27,04,57,7.80
2015,03,27,04,58,7.80
2015,03,27,04,59,7.80
2015,03,27,05,00,7.80
2015,03,27,05,01,7.80
2015,03,27,05,02,7.80
2015,03,27,05,03,7.80
2015,03,27,05,04,7.80
2015,03,27,05,05,7.80
2015,03,27,05,06,7.80
2015,03,27,05,07,7.70
2015,03,27,05,08,7.70
2015,03,27,05,09,7.70
2015,03,27,05,10,7.70
2015,03,27,05,11,7.70
2015,03,27,05,12,7.70
2015,03,27,05,13,7.70
2015,03,27,05,14,7.70
2015,03,27,05,15,7.70
2015,03,27,05,16,7.80
2015,03,27,05,17,7.80
2015,03,27,05,18,7.80
2015,03,27,05,19,7.80
2015,03,27,05,20,7.80
2015,03,27,05,21,7.80
2015,03,27,05,22,7.80
2015,03,27,05,23,7.80
2015,03,27,05,24,7.80
2015,03,27,05,25,7.80
2015,03,27,05,26,7.80
2015,03,27,05,27,7.80
2015,03,27,05,28,7.80
2015,03,27,05,29,7.80
2015,03,27,05,30,7.80
2015,03,27,05,31,7.80
2015,03,27,05,32,7.80
2015,03,27,05,33,7.80
2015,03,27,05,34,7.70
2015,03,27,05,35,7.70
2015,03,27,05,36,7.70
2015,03,27,05,37,7.70
2015,03,27,05,38,7.70
2015,03,27,05,39,7.70
2015,03,27,05,40,7.70
2015,03,27,05,41,7.60
2015,03,27,05,42,7.60
2015,03,27,05,43,7.60
2015,03,27,05,44,7.60
2015,03,27,05,45,7.60
2015,03,27,05,46,7.60
2015,03,27,05,47,7.60
2015,03,27,05,48,7.60
2015,03,27,05,49,7.60
2015,03,27,05,50,7.60
2015,03,27,05,51,7.60
2015,03,27,05,52,7.60
2015,03,27,05,53,7.60
2015,03,27,05,54,7.60
2015,03,27,05,55,7.60
2015,03,27,05,56,7.60
2015,03,27,05,57,7.60
2015,03,27,05,58,7.60
2015,03,27,05,59,7.60
2015,03,27,06,00,7.60
2015,03,27,06,01,7.60
2015,03,27,06,02,7.60
2015,03,27,06,03,7.60
2015,03,27,06,04,7.60
2015,03,27,06,05,7.60
2015,03,27,06,06,7.50
2015,03,27,06,07,7.50
2015,03,27,06,08,7.50
2015,03,27,06,09,7.50
2015,03,27,06,10,7.40
2015,03,27,06,11,7.40
2015,03,27,06,12,7.40
2015,03,27,06,13,7.40
2015,03,27,06,14,7.40
2015,03,27,06,15,7.40
2015,03,27,06,16,7.40
2015,03,27,06,17,7.40
2015,03,27,06,18,7.40
2015,03,27,06,19,7.40
2015,03,27,06,20,7.40
2015,03,27,06,21,7.40
2015,03,27,06,22,7.40
2015,03,27,06,23,7.30
2015,03,27,06,24,7.30
2015,03,27,06,25,7.30
2015,03,27,06,26,7.30
2015,03,27,06,27,7.30
2015,03,27,06,28,7.30
2015,03,27,06,29,7.30
2015,03,27,06,30,7.30
2015,03,27,06,31,7.30
2015,03,27,06,32,7.30
2015,03,27,06,33,7.30
2015,03,27,06,34,7.30
2015,03,27,06,35,7.30
2015,03,27,06,36,7.30
2015,03,27,06,37,7.30
2015,03,27,06,38,7.20
2015,03,27,06,39,7.20
2015,03,27,06,40,7.20
2015,03,27,06,41,7.20
2015,03,27,06,42,7.20
2015,03,27,06,43,7.20
2015,03,27,06,44,7.20
2015,03,27,06,45,7.30
2015,03,27,06,46,7.20
2015,03,27,06,47,7.20
2015,03,27,06,48,7.20
2015,03,27,06,49,7.20
2015,03,27,06,50,7.20
2015,03,27,06,51,7.20
2015,03,27,06,52,7.20
2015,03,27,06,53,7.20
2015,03,27,06,54,7.20
2015,03,27,06,55,7.20
2015,03,27,06,56,7.10
2015,03,27,06,57,7.10
2015,03,27,06,58,7.10
2015,03,27,06,59,7.10
2015,03,27,07,00,7.10
2015,03,27,07,01,7.10
2015,03,27,07,02,7.10
2015,03,27,07,03,7.10
2015,03,27,07,04,7.10
2015,03,27,07,05,7.10
2015,03,27,07,06,7.10
2015,03,27,07,07,7.10
2015,03,27,07,08,7.10
2015,03,27,07,09,7.10
2015,03,27,07,10,7.10
2015,03,27,07,11,7.10
2015,03,27,07,12,7.10
2015,03,27,07,13,7.10
2015,03,27,07,14,7.10
2015,03,27,07,15,7.10
2015,03,27,07,16,7.10
2015,03,27,07,17,7.10
2015,03,27,07,18,7.10
2015,03,27,07,19,7.00
2015,03,27,07,20,7.00
2015,03,27,07,21,7.00
2015,03,27,07,22,7.00
2015,03,27,07,23,7.00
2015,03,27,07,24,7.00
2015,03,27,07,25,7.00
2015,03,27,07,26,7.00
2015,03,27,07,27,6.90
2015,03,27,07,28,6.90
2015,03,27,07,29,6.90
2015,03,27,07,30,6.90
2015,03,27,07,31,6.90
2015,03,27,07,32,6.80
2015,03,27,07,33,6.80
2015,03,27,07,34,6.80
2015,03,27,07,35,6.80
2015,03,27,07,36,6.80
2015,03,27,07,37,6.80
2015,03,27,07,38,6.80
2015,03,27,07,39,6.80
2015,03,27,07,40,6.80
2015,03,27,07,41,6.80
2015,03,27,07,42,6.80
2015,03,27,07,43,6.80
2015,03,27,07,44,6.80
2015,03,27,07,45,6.80
2015,03,27,07,46,6.80
2015,03,27,07,47,6.80
2015,03,27,07,48,6.80
2015,03,27,07,49,6.70
2015,03,27,07,50,6.70
2015,03,27,07,51,6.70
2015,03,27,07,52,6.70
2015,03,27,07,53,6.70
2015,03,27,07,54,6.70
2015,03,27,07,55,6.70
2015,03,27,07,56,6.70
2015,03,27,07,57,6.80
2015,03,27,07,58,6.80
2015,03,27,07,59,6.80
2015,03,27,08,00,6.80
2015,03,27,08,01,6.80
2015,03,27,08,02,6.80
2015,03,27,08,03,6.80
2015,03,27,08,04,6.80
2015,03,27,08,05,6.80
2015,03,27,08,06,6.80
2015,03,27,08,07,6.70
2015,03,27,08,08,6.70
2015,03,27,08,09,6.70
2015,03,27,08,10,6.70
2015,03,27,08,11,6.70
2015,03,27,08,12,6.80
2015,03,27,08,13,6.80
2015,03,27,08,14,6.80
2015,03,27,08,15,6.80
2015,03,27,08,16,6.80
2015,03,27,08,17,6.80
2015,03,27,08,18,6.80
2015,03,27,08,19,6.80
2015,03,27,08,20,6.80
2015,03,27,08,21,6.90
2015,03,27,08,22,6.90
2015,03,27,08,23,6.90
2015,03,27,08,24,6.90
2015,03,27,08,25,7.00
2015,03,27,08,26,7.00
2015,03,27,08,27,7.00
2015,03,27,08,28,7.10
2015,03,27,08,29,7.10
2015,03,27,08,30,7.10
2015,03,27,08,31,7.10
2015,03,27,08,32,7.10
2015,03,27,08,33,7.20
2015,03,27,08,34,7.20
2015,03,27,08,35,7.20
2015,03,27,08,36,7.20
2015,03,27,08,37,7.20
2015,03,27,08,38,7.30
2015,03,27,08,39,7.30
2015,03,27,08,40,7.30
2015,03,27,08,41,7.30
2015,03,27,08,42,7.30
2015,03,27,08,43,7.30
2015,03,27,08,44,7.30
2015,03,27,08,45,7.40
2015,03,27,08,46,7.40
2015,03,27,08,47,7.40
2015,03,27,08,48,7.50
2015,03,27,08,49,7.50
2015,03,27,08,50,7.50
2015,03,27,08,51,7.60
2015,03,27,08,52,7.60
2015,03,27,08,53,7.60
2015,03,27,08,54,7.70
2015,03,27,08,55,7.70
2015,03,27,08,56,7.80
2015,03,27,08,57,7.80
2015,03,27,08,58,7.80
2015,03,27,08,59,7.90
2015,03,27,09,00,7.90
2015,03,27,09,01,7.90
2015,03,27,09,02,7.90
2015,03,27,09,03,8.00
2015,03,27,09,04,8.00
2015,03,27,09,05,8.00
2015,03,27,09,06,8.10
2015,03,27,09,07,8.10
2015,03,27,09,08,8.10
2015,03,27,09,09,8.20
2015,03,27,09,10,8.20
2015,03,27,09,11,8.20
2015,03,27,09,12,8.20
2015,03,27,09,13,8.30
2015,03,27,09,14,8.30
2015,03,27,09,15,8.30
2015,03,27,09,16,8.30
2015,03,27,09,17,8.30
2015,03,27,09,18,8.30
2015,03,27,09,19,8.30
2015,03,27,09,20,8.40
2015,03,27,09,21,8.40
2015,03,27,09,22,8.50
2015,03,27,09,23,8.50
2015,03,27,09,24,8.60
2015,03,27,09,25,8.60
2015,03,27,09,26,8.70
2015,03,27,09,27,8.70
2015,03,27,09,28,8.70
2015,03,27,09,29,8.70
2015,03,27,09,30,8.80
2015,03,27,09,31,8.80
2015,03,27,09,32,8.80
2015,03,27,09,33,8.90
2015,03,27,09,34,8.90
2015,03,27,09,35,8.90
2015,03,27,09,36,9.00
2015,03,27,09,37,9.00
2015,03,27,09,38,9.00
2015,03,27,09,39,9.10
2015,03,27,09,40,9.10
2015,03,27,09,41,9.10
2015,03,27,09,42,9.10
2015,03,27,09,43,9.20
2015,03,27,09,44,9.20
2015,03,27,09,45,9.20
2015,03,27,09,46,9.20
2015,03,27,09,47,9.30
2015,03,27,09,48,9.30
2015,03,27,09,49,9.30
2015,03,27,09,50,9.30
2015,03,27,09,51,9.30
2015,03,27,09,52,9.30
2015,03,27,09,53,9.30
2015,03,27,09,54,9.40
2015,03,27,09,55,9.40
2015,03,27,09,56,9.40
2015,03,27,09,57,9.50
2015,03,27,09,58,9.50
2015,03,27,09,59,9.60
2015,03,27,10,00,9.60
2015,03,27,10,01,9.60
2015,03,27,10,02,9.60
2015,03,27,10,03,9.60
2015,03,27,10,04,9.70
2015,03,27,10,05,9.70
2015,03,27,10,06,9.70
2015,03,27,10,07,9.70
2015,03,27,10,08,9.70
2015,03,27,10,09,9.80
2015,03,27,10,10,9.80
2015,03,27,10,11,9.80
2015,03,27,10,12,9.90
2015,03,27,10,13,9.90
2015,03,27,10,14,9.90
2015,03,27,10,15,9.90
2015,03,27,10,16,10.00
2015,03,27,10,17,10.00
2015,03,27,10,18,10.10
2015,03,27,10,19,10.10
2015,03,27,10,20,10.20
2015,03,27,10,21,10.20
2015,03,27,10,22,10.20
2015,03,27,10,23,10.20
2015,03,27,10,24,10.20
2015,03,27,10,25,10.30
2015,03,27,10,26,10.30
2015,03,27,10,27,10.30
2015,03,27,10,28,10.30
2015,03,27,10,29,10.30
2015,03,27,10,30,10.30
2015,03,27,10,31,10.40
2015,03,27,10,32,10.40
2015,03,27,10,33,10.50
2015,03,27,10,34,10.50
2015,03,27,10,35,10.60
2015,03,27,10,36,10.60
2015,03,27,10,37,10.70
2015,03,27,10,38,10.80
2015,03,27,10,39,10.80
2015,03,27,10,40,10.90
2015,03,27,10,41,11.00
2015,03,27,10,42,11.10
2015,03,27,10,43,11.10
2015,03,27,10,44,11.20
2015,03,27,10,45,11.20
2015,03,27,10,46,11.30
2015,03,27,10,47,11.40
2015,03,27,10,48,11.50
2015,03,27,10,49,11.60
2015,03,27,10,50,11.80
2015,03,27,10,51,11.90
2015,03,27,10,52,12.00
2015,03,27,10,53,12.10
2015,03,27,10,54,12.20
2015,03,27,10,55,12.30
2015,03,27,10,56,12.50
2015,03,27,10,57,12.60
2015,03,27,10,58,12.80
2015,03,27,10,59,12.90
2015,03,27,11,00,13.00
2015,03,27,11,01,13.10
2015,03,27,11,02,13.20
2015,03,27,11,03,13.30
2015,03,27,11,04,13.30
2015,03,27,11,05,13.30
2015,03,27,11,06,13.30
2015,03,27,11,07,13.30
2015,03,27,11,08,13.30
2015,03,27,11,09,13.40
2015,03,27,11,10,13.40
2015,03,27,11,11,13.40
2015,03,27,11,12,13.50
2015,03,27,11,13,13.50
2015,03,27,11,14,13.60
2015,03,27,11,15,13.70
2015,03,27,11,16,13.70
2015,03,27,11,17,13.80
2015,03,27,11,18,13.80
2015,03,27,11,19,13.90
2015,03,27,11,20,13.90
2015,03,27,11,21,13.90
2015,03,27,11,22,13.90
2015,03,27,11,23,14.00
2015,03,27,11,24,14.00
2015,03,27,11,25,14.10
2015,03,27,11,26,14.20
2015,03,27,11,27,14.20
2015,03,27,11,28,14.30
2015,03,27,11,29,14.30
2015,03,27,11,30,14.30
2015,03,27,11,31,14.40
2015,03,27,11,32,14.50
2015,03,27,11,33,14.60
2015,03,27,11,34,14.70
2015,03,27,11,35,14.80
2015,03,27,11,36,14.90
2015,03,27,11,37,15.00
2015,03,27,11,38,15.00
2015,03,27,11,39,15.10
2015,03,27,11,40,15.20
2015,03,27,11,41,15.30
2015,03,27,11,42,15.40
2015,03,27,11,43,15.60
2015,03,27,11,44,15.70
2015,03,27,11,45,15.70
2015,03,27,11,46,15.60
2015,03,27,11,47,15.50
2015,03,27,11,48,15.40
2015,03,27,11,49,15.40
2015,03,27,11,50,15.40
2015,03,27,11,51,15.40
2015,03,27,11,52,15.40
2015,03,27,11,53,15.50
2015,03,27,11,54,15.60
2015,03,27,11,55,15.70
2015,03,27,11,56,15.80
2015,03,27,11,57,15.80
2015,03,27,11,58,15.80
2015,03,27,11,59,15.90
2015,03,27,12,00,15.90
2015,03,27,12,01,15.90
2015,03,27,12,02,15.80
2015,03,27,12,03,15.80
2015,03,27,12,04,15.80
2015,03,27,12,05,15.80
2015,03,27,12,06,15.80
2015,03,27,12,07,15.70
2015,03,27,12,08,15.70
2015,03,27,12,09,15.60
2015,03,27,12,10,15.60
2015,03,27,12,11,15.50
2015,03,27,12,12,15.40
2015,03,27,12,13,15.40
2015,03,27,12,14,15.40
2015,03,27,12,15,15.50
2015,03,27,12,16,15.60
2015,03,27,12,17,15.70
2015,03,27,12,18,15.80
2015,03,27,12,19,15.70
2015,03,27,12,20,15.80
2015,03,27,12,21,15.80
2015,03,27,12,22,15.80
2015,03,27,12,23,15.80
2015,03,27,12,24,15.80
2015,03,27,12,25,15.80
2015,03,27,12,26,15.80
2015,03,27,12,27,15.90
2015,03,27,12,28,15.90
2015,03,27,12,29,15.90
2015,03,27,12,30,15.90
2015,03,27,12,31,15.90
2015,03,27,12,32,15.90
2015,03,27,12,33,16.00
2015,03,27,12,34,16.00
2015,03,27,12,35,16.10
2015,03,27,12,36,16.10
2015,03,27,12,37,16.10
2015,03,27,12,38,16.10
2015,03,27,12,39,16.10
2015,03,27,12,40,16.10
2015,03,27,12,41,16.20
2015,03,27,12,42,16.20
2015,03,27,12,43,16.20
2015,03,27,12,44,16.20
2015,03,27,12,45,16.10
2015,03,27,12,46,16.10
2015,03,27,12,47,16.10
2015,03,27,12,48,16.10
2015,03,27,12,49,16.20
2015,03,27,12,50,16.20
2015,03,27,12,51,16.20
2015,03,27,12,52,16.20
2015,03,27,12,53,16.20
2015,03,27,12,54,16.20
2015,03,27,12,55,16.30
2015,03,27,12,56,16.30
2015,03,27,12,57,16.40
2015,03,27,12,58,16.40
2015,03,27,12,59,16.40
2015,03,27,13,00,16.30
2015,03,27,13,01,16.30
2015,03,27,13,02,16.30
2015,03,27,13,03,16.30
2015,03,27,13,04,16.20
2015,03,27,13,05,16.20
2015,03,27,13,06,16.10
2015,03,27,13,07,16.10
2015,03,27,13,08,16.10
2015,03,27,13,09,16.20
2015,03,27,13,10,16.20
2015,03,27,13,11,16.10
2015,03,27,13,12,16.10
2015,03,27,13,13,16.00
2015,03,27,13,14,16.00
2015,03,27,13,15,15.90
2015,03,27,13,16,16.00
2015,03,27,13,17,16.00
2015,03,27,13,18,15.90
2015,03,27,13,19,15.90
2015,03,27,13,20,16.00
2015,03,27,13,21,16.10
2015,03,27,13,22,16.10
2015,03,27,13,23,16.10
2015,03,27,13,24,16.10
2015,03,27,13,25,16.20
2015,03,27,13,26,16.20
2015,03,27,13,27,16.20
2015,03,27,13,28,16.30
2015,03,27,13,29,16.30
2015,03,27,13,30,16.30
2015,03,27,13,31,16.20
2015,03,27,13,32,16.20
2015,03,27,13,33,16.20
2015,03,27,13,34,16.20
2015,03,27,13,35,16.30
2015,03,27,13,36,16.30
2015,03,27,13,37,16.30
2015,03,27,13,38,16.30
2015,03,27,13,39,16.40
2015,03,27,13,40,16.40
2015,03,27,13,41,16.40
2015,03,27,13,42,16.40
2015,03,27,13,43,16.40
2015,03,27,13,44,16.40
2015,03,27,13,45,16.40
2015,03,27,13,46,16.40
2015,03,27,13,47,16.40
2015,03,27,13,48,16.50
2015,03,27,13,49,16.50
2015,03,27,13,50,16.40
2015,03,27,13,51,16.40
2015,03,27,13,52,16.40
2015,03,27,13,53,16.50
2015,03,27,13,54,16.50
2015,03,27,13,55,16.50
2015,03,27,13,56,16.60
2015,03,27,13,57,16.50
2015,03,27,13,58,16.50
2015,03,27,13,59,16.40
2015,03,27,14,00,16.50
2015,03,27,14,01,16.50
2015,03,27,14,02,16.50
2015,03,27,14,03,16.40
2015,03,27,14,04,16.40
2015,03,27,14,05,16.30
2015,03,27,14,06,16.30
2015,03,27,14,07,16.30
2015,03,27,14,08,16.30
2015,03,27,14,09,16.40
2015,03,27,14,10,16.40
2015,03,27,14,11,16.40
2015,03,27,14,12,16.40
2015,03,27,14,13,16.30
2015,03,27,14,14,16.30
2015,03,27,14,15,16.30
2015,03,27,14,16,16.20
2015,03,27,14,17,16.20
2015,03,27,14,18,16.20
2015,03,27,14,19,16.20
2015,03,27,14,20,16.10
2015,03,27,14,21,16.10
2015,03,27,14,22,16.10
2015,03,27,14,23,16.20
2015,03,27,14,24,16.20
2015,03,27,14,25,16.20
2015,03,27,14,26,16.30
2015,03,27,14,27,16.30
2015,03,27,14,28,16.30
2015,03,27,14,29,16.40
2015,03,27,14,30,16.50
2015,03,27,14,31,16.60
2015,03,27,14,32,16.60
2015,03,27,14,33,16.60
2015,03,27,14,34,16.60
2015,03,27,14,35,16.60
2015,03,27,14,36,16.60
2015,03,27,14,37,16.60
2015,03,27,14,38,16.60
2015,03,27,14,39,16.60
2015,03,27,14,40,16.60
2015,03,27,14,41,16.60
2015,03,27,14,42,16.60
2015,03,27,14,43,16.60
2015,03,27,14,44,16.60
2015,03,27,14,45,16.60
2015,03,27,14,46,16.50
2015,03,27,14,47,16.40
2015,03,27,14,48,16.40
2015,03,27,14,49,16.30
2015,03,27,14,50,16.20
2015,03,27,14,51,16.20
2015,03,27,14,52,16.20
2015,03,27,14,53,16.10
2015,03,27,14,54,16.10
2015,03,27,14,55,16.10
2015,03,27,14,56,16.10
2015,03,27,14,57,16.10
2015,03,27,14,58,16.10
2015,03,27,14,59,16.10
2015,03,27,15,00,16.20
2015,03,27,15,01,16.20
2015,03,27,15,02,16.20
2015,03,27,15,03,16.30
2015,03,27,15,04,16.30
2015,03,27,15,05,16.20
2015,03,27,15,06,16.20
2015,03,27,15,07,16.20
2015,03,27,15,08,16.20
2015,03,27,15,09,16.20
2015,03,27,15,10,16.20
2015,03,27,15,11,16.20
2015,03,27,15,12,16.20
2015,03,27,15,13,16.30
2015,03,27,15,14,16.40
2015,03,27,15,15,16.50
2015,03,27,15,16,16.60
2015,03,27,15,17,16.70
2015,03,27,15,18,16.70
2015,03,27,15,19,16.60
2015,03,27,15,20,16.60
2015,03,27,15,21,16.60
2015,03,27,15,22,16.50
2015,03,27,15,23,16.50
2015,03,27,15,24,16.40
2015,03,27,15,25,16.30
2015,03,27,15,26,16.30
2015,03,27,15,27,16.30
2015,03,27,15,28,16.30
2015,03,27,15,29,16.30
2015,03,27,15,30,16.30
2015,03,27,15,31,16.30
2015,03,27,15,32,16.30
2015,03,27,15,33,16.30
2015,03,27,15,34,16.30
2015,03,27,15,35,16.30
2015,03,27,15,36,16.30
2015,03,27,15,37,16.30
2015,03,27,15,38,16.40
2015,03,27,15,39,16.30
2015,03,27,15,40,16.30
2015,03,27,15,41,16.30
2015,03,27,15,42,16.40
2015,03,27,15,43,16.40
2015,03,27,15,44,16.40
2015,03,27,15,45,16.40
2015,03,27,15,46,16.40
2015,03,27,15,47,16.50
2015,03,27,15,48,16.50
2015,03,27,15,49,16.50
2015,03,27,15,50,16.50
2015,03,27,15,51,16.40
2015,03,27,15,52,16.40
2015,03,27,15,53,16.40
2015,03,27,15,54,16.40
2015,03,27,15,55,16.50
2015,03,27,15,56,16.60
2015,03,27,15,57,16.70
2015,03,27,15,58,16.80
2015,03,27,15,59,16.90
2015,03,27,16,00,16.90
2015,03,27,16,01,17.00
2015,03,27,16,02,17.00
2015,03,27,16,03,17.00
2015,03,27,16,04,16.90
2015,03,27,16,05,16.90
2015,03,27,16,06,17.00
2015,03,27,16,07,17.00
2015,03,27,16,08,17.00
2015,03,27,16,09,17.10
2015,03,27,16,10,17.10
2015,03,27,16,11,17.20
2015,03,27,16,12,17.30
2015,03,27,16,13,17.30
2015,03,27,16,14,17.50
2015,03,27,16,15,17.70
2015,03,27,16,16,17.90
2015,03,27,16,17,18.10
2015,03,27,16,18,18.30
2015,03,27,16,19,18.50
2015,03,27,16,20,18.60
2015,03,27,16,21,18.70
2015,03,27,16,22,18.70
2015,03,27,16,23,18.70
2015,03,27,16,24,18.80
2015,03,27,16,25,18.80
2015,03,27,16,26,18.70
2015,03,27,16,27,18.70
2015,03,27,16,28,18.70
2015,03,27,16,29,18.70
2015,03,27,16,30,18.70
2015,03,27,16,31,18.70
2015,03,27,16,32,18.70
2015,03,27,16,33,18.60
2015,03,27,16,34,18.60
2015,03,27,16,35,18.60
2015,03,27,16,36,18.60
2015,03,27,16,37,18.60
2015,03,27,16,38,18.60
2015,03,27,16,39,18.60
2015,03,27,16,40,18.60
2015,03,27,16,41,18.60
2015,03,27,16,42,18.70
2015,03,27,16,43,18.60
2015,03,27,16,44,18.60
2015,03,27,16,45,18.50
2015,03,27,16,46,18.50
2015,03,27,16,47,18.40
2015,03,27,16,48,18.40
2015,03,27,16,49,18.40
2015,03,27,16,50,18.30
2015,03,27,16,51,18.30
2015,03,27,16,52,18.20
2015,03,27,16,53,18.20
2015,03,27,16,54,18.20
2015,03,27,16,55,18.20
2015,03,27,16,56,18.20
2015,03,27,16,57,18.20
2015,03,27,16,58,18.10
2015,03,27,16,59,18.10
2015,03,27,17,00,18.10
2015,03,27,17,01,18.10
2015,03,27,17,02,18.10
2015,03,27,17,03,18.10
2015,03,27,17,04,18.10
2015,03,27,17,05,18.10
2015,03,27,17,06,18.10
2015,03,27,17,07,18.10
2015,03,27,17,08,18.10
2015,03,27,17,09,18.10
2015,03,27,17,10,18.10
2015,03,27,17,11,18.00
2015,03,27,17,12,18.00
2015,03,27,17,13,18.00
2015,03,27,17,14,18.00
2015,03,27,17,15,18.00
2015,03,27,17,16,18.00
2015,03,27,17,17,18.00
2015,03,27,17,18,18.00
2015,03,27,17,19,18.00
2015,03,27,17,20,18.00
2015,03,27,17,21,18.00
2015,03,27,17,22,18.00
2015,03,27,17,23,18.00
2015,03,27,17,24,18.00
2015,03,27,17,25,18.00
2015,03,27,17,26,18.00
2015,03,27,17,27,18.00
2015,03,27,17,28,17.90
2015,03,27,17,29,17.90
2015,03,27,17,30,17.90
2015,03,27,17,31,17.90
2015,03,27,17,32,17.90
2015,03,27,17,33,17.90
2015,03,27,17,34,17.90
2015,03,27,17,35,17.80
2015,03,27,17,36,17.80
2015,03,27,17,37,17.80
2015,03,27,17,38,17.80
2015,03,27,17,39,17.70
2015,03,27,17,40,17.70
2015,03,27,17,41,17.60
2015,03,27,17,42,17.60
2015,03,27,17,43,17.60